Regional Weather Roundup
Issued by NWS

Home | Current Version | Previous Version | Graphics & Text | Print | Product List | Glossary On
Versions: 1 2 3 4 5 6 7 8 9 10 11 12 13 14 15 16 17 18 19 20 21 22 23 24 25 26 27 28 29 30 31 32 33 34 35 36 37 38 39 40 41 42 43 44 45 46 47 48 49 50
972
ASUS43 KOAX 250710
RWRNE

WEATHER ROUNDUP FOR NEBRASKA
NATIONAL WEATHER SERVICE OMAHA NE
200 AM CDT MON JUL 25 2016

NOTES: SATELLITE DATA IS BEING USED TO AUGMENT CLOUD COVER ABOVE
       12000 FEET.
       "FAIR" INDICATES FEW OR NO CLOUDS BELOW 12,000 FEET WITH NO
       SIGNIFICANT WEATHER AND/OR OBSTRUCTIONS TO VISIBILITY.

  * THESE STATIONS DO NOT REPORT WEATHER SUCH AS RAIN...SNOW OR FOG.

NEZ001>004-019>022-054>056-250800-
NEBRASKA PANHANDLE

CITY           SKY/WX    TMP DP  RH WIND       PRES   REMARKS
SCOTTSBLUFF    CLEAR     62  55  77 E7        30.19F
ALLIANCE       CLEAR     57  55  93 S7        30.19S
CHADRON        CLEAR     71  56  58 S14       30.13S
KIMBALL        CLEAR     58  57  95 W5        30.24F
SIDNEY         CLEAR     55  53  93 W7        30.23S
$$

NEZ057>060-069>072-079>082-250800-
SOUTHWEST NEBRASKA

CITY           SKY/WX    TMP DP  RH WIND       PRES   REMARKS
NORTH PLATTE   CLOUDY    64  61  90 E6        30.13F
IMPERIAL       CLOUDY    66  60  81 N5        30.15F
LEXINGTON      MOCLDY    67  63  86 CALM      30.12F
MCCOOK         CLOUDY    72  59  63 E7        30.12R
OGALLALA       CLOUDY    67  60  79 E3        30.16S
$$

NEZ005>010-023>029-035>040-094-250800-
NORTH CENTRAL NEBRASKA

CITY           SKY/WX    TMP DP  RH WIND       PRES   REMARKS
VALENTINE      CLEAR     66  55  67 CALM      30.14F
AINSWORTH      CLEAR     61  56  84 S7        30.15S
BROKEN BOW     CLOUDY    63  61  93 CALM      30.13F
O`NEILL        CLOUDY    65  60  85 CALM      30.13F
ORD            CLOUDY    63  60  90 CALM      30.11S
THEDFORD       CLEAR     65  60  84 CALM      30.16F
$$

NEZ041-046>049-061>064-073>077-083>087-250800-
SOUTH CENTRAL NEBRASKA

CITY           SKY/WX    TMP DP  RH WIND       PRES   REMARKS
GRAND ISLAND   PTCLDY    66  63  90 NE6       30.10F
AURORA         CLOUDY    66  65  96 NE3       30.09F
HASTINGS       PTCLDY    67  63  87 NE6       30.09F
HEBRON         CLOUDY    67  64  88 NE6       30.05F
HOLDREGE       MOCLDY    68  64  85 NE3       30.10F
KEARNEY *      MOCLDY    66  61  82 NE7       30.10F
YORK           CLOUDY    64  64 100 CALM      30.08F
$$

NEZ011>018-030>034-042>045-250800-
NORTHEAST NEBRASKA

CITY           SKY/WX    TMP DP  RH WIND       PRES   REMARKS
NORFOLK        CLEAR     59  57  93 W5        30.10S
ALBION         CLOUDY    61  58  91 CALM      30.11S
BLAIR          PTCLDY    69  65  87 NE6       30.06F
FREMONT        PTCLDY    67  63  85 CALM      30.07F
TEKAMAH        PTCLDY    65  62  90 N7        30.06F
WAYNE          PTCLDY    60  58  94 CALM      30.09F
$$

NEZ050>053-065>068-078-088>093-250800-
SOUTHEAST NEBRASKA

CITY           SKY/WX    TMP DP  RH WIND       PRES   REMARKS
LINCOLN        CLOUDY    66  64  93 NE5       30.07F
OMAHA EPPLEY   MOCLDY    70  65  84 N7        30.05F
BEATRICE       PTCLDY    66  64  92 NE6       30.05F
FALLS CITY     CLEAR     69  66  90 N5        30.02F
NEBRASKA CITY  CLEAR     68  67  98 N6        30.05F
PLATTSMOUTH    PTCLDY    68  65  89 CALM      30.06S
$$

NEZ044-045-051>053-067-250800-
OMAHA AREA

CITY           SKY/WX    TMP DP  RH WIND       PRES   REMARKS
OMAHA EPPLEY   MOCLDY    70  65  84 N7        30.05F
BLAIR          PTCLDY    69  65  87 NE6       30.06F
FREMONT        PTCLDY    67  63  85 CALM      30.07F
MILLARD        MOCLDY    73  65  77 CALM      30.06S
OFFUTT AFB     PTCLDY    69  65  88 N3        30.05F
PLATTSMOUTH    PTCLDY    68  65  89 CALM      30.06S
WAHOO          FAIR      67  65  91 N6        30.06F
$$




USA.gov is the U.S. government's official web portal to all federal, state and local government web resources and services.